Location: Huntsville
(41.2590°N, 111.7678°W)
Time: 02:26:28
(UTC+00:00)

Vanguard 1 - Visible Passes

Search period start: 13 June 2021 00:00
Search period end: 23 June 2021 00:00
Orbit: 650 x 3832 km, 34.2° (Epoch: 12 June)

Date Brightness Start Highest point End Pass type
(mag) Time Alt. Az. Time Alt. Az. Time Alt. Az.
13 Jun 12.8 04:21:13 10° SSW 04:39:50 35° SSE 04:52:57 10° E visible
13 Jun 11.9 06:44:32 10° WSW 07:03:37 56° SSE 07:14:27 10° E visible
13 Jun 11.2 09:11:22 10° W 09:26:06 60° S 09:33:56 10° ESE visible
14 Jun 12.6 04:41:02 10° SSW 05:00:56 41° SSE 05:14:24 10° E visible
14 Jun 11.8 07:05:41 10° WSW 07:24:46 61° S 07:35:21 10° E visible
14 Jun 11.2 09:32:52 10° W 09:47:01 56° SSW 09:54:35 10° ESE visible
15 Jun 12.5 05:01:18 10° SW 05:22:04 48° SSE 05:35:37 10° E visible
15 Jun 11.7 07:27:01 10° WSW 07:45:53 64° S 07:56:11 10° E visible
15 Jun 11.2 09:54:25 10° W 10:07:49 51° SSW 10:15:08 10° SE visible
16 Jun 12.4 05:21:56 10° SW 05:43:15 55° SSE 05:56:42 10° E visible
16 Jun 11.7 07:48:29 10° WSW 08:06:59 65° S 08:16:59 10° ESE visible
16 Jun 11.3 10:16:00 10° W 10:28:31 44° SSW 10:35:33 10° SE visible
17 Jun 13.0 03:19:51 10° SSW 03:39:52 38° SSE 03:55:28 10° E visible
17 Jun 12.3 05:42:51 10° WSW 06:04:27 60° SSE 06:17:42 10° E visible
17 Jun 11.6 08:10:03 10° W 08:28:03 64° S 08:37:44 10° ESE visible
17 Jun 11.5 10:37:40 10° W 10:49:03 36° SSW 10:55:47 10° SSE visible
18 Jun 12.9 03:39:44 10° SW 04:00:56 45° SSE 04:16:56 10° E visible
18 Jun 12.2 06:04:01 10° WSW 06:25:40 64° S 06:38:39 10° E visible
18 Jun 11.6 08:31:38 10° W 08:49:02 60° SSW 08:58:25 10° ESE visible
18 Jun 11.7 10:59:29 10° W 11:09:27 28° SW 11:15:44 10° SSE visible
19 Jun 12.8 04:00:01 10° SW 04:22:03 51° SSE 04:38:13 10° E visible
19 Jun 12.1 06:25:22 10° WSW 06:46:54 67° S 06:59:33 10° E visible
19 Jun 11.6 08:53:15 10° W 09:09:56 55° SSW 09:18:59 10° SE visible
19 Jun 11.9 11:21:38 10° W 11:29:41 21° SW 11:35:15 10° S visible
20 Jun 12.7 04:20:38 10° SW 04:43:15 58° SSE 04:59:22 10° E visible
20 Jun 12.1 06:46:50 10° WSW 07:08:06 68° S 07:20:24 10° ESE visible
20 Jun 11.6 09:14:55 10° W 09:30:40 48° SSW 09:39:25 10° SE visible
21 Jun 12.6 04:41:32 10° WSW 05:04:30 63° SSE 05:20:26 10° E visible
21 Jun 12.0 07:08:24 10° W 07:29:17 67° S 07:41:12 10° ESE visible
21 Jun 11.8 09:36:40 10° W 09:51:15 41° SW 09:59:40 10° SSE visible
22 Jun 12.5 05:02:39 10° WSW 05:25:48 67° S 05:41:27 10° E visible
22 Jun 12.0 07:30:01 10° W 07:50:22 63° SSW 08:01:55 10° ESE visible
22 Jun 11.9 09:58:32 10° W 10:11:41 33° SW 10:19:40 10° SSE visible
